| time (UTC) | temp C | wind direction | speed KPH | gust KPH | rain 1hr cm | rain 24hr cm | rain mn cm | humidity % | barometer mb |
| 20260504081824 | 10 | 288 | 0.0 | 3.2 | 0.00 | 0.00 | 0.00 | 42 | 1012.0 |
| 20260504081345 | 11 | 288 | 1.6 | 3.2 | 0.00 | 0.00 | 0.00 | 41 | 1012.0 |
| 20260504080825 | 11 | 288 | 0.0 | 1.6 | 0.00 | 0.00 | 0.00 | 41 | 1012.1 |
| 20260504080327 | 11 | 288 | 0.0 | 0.0 | 0.00 | 0.00 | 0.00 | 40 | 1012.0 |
| 20260504070323 | 13 | 358 | 3.2 | 6.4 | 0.00 | 0.00 | 0.00 | 36 | 1012.3 |
| 20260504050314 | 16 | 358 | 8.0 | 12.9 | 0.00 | 0.00 | 0.00 | 30 | 1012.3 |
| 20260504045815 | 16 | 358 | 4.8 | 16.1 | 0.00 | 0.00 | 0.00 | 30 | 1012.3 |
| 20260504045318 | 17 | 358 | 6.4 | 16.1 | 0.00 | 0.00 | 0.00 | 29 | 1012.3 |
| 20260504044820 | 17 | 221 | 8.0 | 12.9 | 0.00 | 0.00 | 0.00 | 28 | 1012.5 |
| 20260504044320 | 17 | 358 | 8.0 | 12.9 | 0.00 | 0.00 | 0.00 | 27 | 1012.4 |
| 20260504043821 | 17 | 358 | 4.8 | 9.7 | 0.00 | 0.00 | 0.00 | 25 | 1012.4 |
| 20260504043325 | 18 | 358 | 3.2 | 8.0 | 0.00 | 0.00 | 0.00 | 25 | 1012.4 |
| 20260504042827 | 18 | 358 | 1.6 | 8.0 | 0.00 | 0.00 | 0.00 | 25 | 1012.5 |
| 20260504042331 | 18 | 358 | 4.8 | 12.9 | 0.00 | 0.00 | 0.00 | 24 | 1012.5 |
| 20260504041832 | 18 | 358 | 8.0 | 17.7 | 0.00 | 0.00 | 0.00 | 24 | 1012.6 |
| 20260504041353 | 18 | 358 | 8.0 | 17.7 | 0.00 | 0.00 | 0.00 | 23 | 1012.6 |
| 20260504040812 | 18 | 358 | 4.8 | 12.9 | 0.00 | 0.00 | 0.00 | 23 | 1012.7 |
| 20260504040316 | 18 | 358 | 4.8 | 17.7 | 0.00 | 0.00 | 0.00 | 22 | 1012.6 |
| 20260504035817 | 18 | 358 | 8.0 | 24.1 | 0.00 | 0.00 | 0.00 | 21 | 1012.6 |
| 20260504035318 | 18 | 358 | 3.2 | 24.1 | 0.00 | 0.00 | 0.00 | 22 | 1012.7 |
| 20260504034820 | 18 | 358 | 6.4 | 17.7 | 0.00 | 0.00 | 0.00 | 24 | 1012.7 |
| 20260504034321 | 17 | 236 | 6.4 | 24.1 | 0.00 | 0.00 | 0.00 | 23 | 1012.7 |
| 20260504033823 | 16 | 177 | 8.0 | 14.5 | 0.00 | 0.00 | 0.00 | 29 | 1012.9 |
| 20260504033324 | 16 | 121 | 4.8 | 11.3 | 0.00 | 0.00 | 0.00 | 30 | 1013.1 |
| 20260504032826 | 16 | 39 | 4.8 | 6.4 | 0.00 | 0.00 | 0.00 | 30 | 1013.2 |
| 20260504032327 | 16 | 39 | 3.2 | 4.8 | 0.00 | 0.00 | 0.00 | 30 | 1013.3 |
| 20260504031829 | 16 | 39 | 3.2 | 4.8 | 0.00 | 0.00 | 0.00 | 31 | 1013.3 |
| 20260504031351 | 16 | 39 | 0.0 | 1.6 | 0.00 | 0.00 | 0.00 | 30 | 1013.2 |
| 20260504030813 | 16 | 39 | 0.0 | 1.6 | 0.00 | 0.00 | 0.00 | 30 | 1013.1 |
| 20260504030334 | 17 | 39 | 0.0 | 3.2 | 0.00 | 0.00 | 0.00 | 29 | 1013.1 |
| 20260504025816 | 17 | 39 | 1.6 | 3.2 | 0.00 | 0.00 | 0.00 | 29 | 1012.9 |
| 20260504025317 | 17 | 39 | 1.6 | 3.2 | 0.00 | 0.00 | 0.00 | 29 | 1012.9 |
| 20260504024840 | 17 | 39 | 1.6 | 3.2 | 0.00 | 0.00 | 0.00 | 28 | 1012.9 |
| 20260504024322 | 17 | 39 | 1.6 | 4.8 | 0.00 | 0.00 | 0.00 | 28 | 1012.9 |
| 20260504023821 | 17 | 39 | 1.6 | 4.8 | 0.00 | 0.00 | 0.00 | 29 | 1012.9 |
| 20260504023322 | 17 | 39 | 0.0 | 4.8 | 0.00 | 0.00 | 0.00 | 28 | 1012.9 |
| 20260504022825 | 17 | 39 | 1.6 | 4.8 | 0.00 | 0.00 | 0.00 | 28 | 1012.9 |
| 20260504022348 | 17 | 39 | 1.6 | 4.8 | 0.00 | 0.00 | 0.00 | 28 | 1012.9 |
| 20260504021829 | 17 | 39 | 1.6 | 4.8 | 0.00 | 0.00 | 0.00 | 28 | 1012.9 |
| 20260504021331 | 17 | 39 | 0.0 | 3.2 | 0.00 | 0.00 | 0.00 | 28 | 1012.9 |
| 20260504020812 | 17 | 39 | 0.0 | 3.2 | 0.00 | 0.00 | 0.00 | 28 | 1012.9 |
| 20260504020315 | 17 | 39 | 1.6 | 6.4 | 0.00 | 0.00 | 0.00 | 28 | 1012.9 |
| 20260504015816 | 17 | 39 | 1.6 | 6.4 | 0.00 | 0.00 | 0.00 | 28 | 1013.0 |
| 20260504015317 | 17 | 38 | 1.6 | 4.8 | 0.00 | 0.00 | 0.00 | 27 | 1012.9 |
| 20260504014819 | 17 | 38 | 1.6 | 6.4 | 0.00 | 0.00 | 0.00 | 27 | 1012.9 |
| 20260504014341 | 18 | 38 | 3.2 | 9.7 | 0.00 | 0.00 | 0.00 | 26 | 1012.9 |
| 20260504013842 | 18 | 36 | 4.8 | 16.1 | 0.00 | 0.00 | 0.00 | 26 | 1012.9 |
| 20260504013321 | 18 | 38 | 8.0 | 16.1 | 0.00 | 0.00 | 0.00 | 25 | 1012.9 |
| 20260504012843 | 18 | 348 | 6.4 | 9.7 | 0.00 | 0.00 | 0.00 | 25 | 1012.9 |
| 20260504012339 | 18 | 293 | 3.2 | 6.4 | 0.00 | 0.00 | 0.00 | 24 | 1012.9 |
| 20260504011819 | 18 | 293 | 3.2 | 6.4 | 0.00 | 0.00 | 0.00 | 24 | 1012.9 |
| 20260504011322 | 18 | 291 | 0.0 | 9.7 | 0.00 | 0.00 | 0.00 | 24 | 1012.9 |
| 20260504010843 | 18 | 358 | 4.8 | 9.7 | 0.00 | 0.00 | 0.00 | 24 | 1013.0 |
| 20260504010324 | 18 | 358 | 3.2 | 8.0 | 0.00 | 0.00 | 0.00 | 24 | 1013.0 |
| 20260504005827 | 18 | 358 | 4.8 | 12.9 | 0.00 | 0.00 | 0.00 | 24 | 1013.1 |
| 20260504005326 | 18 | 358 | 4.8 | 19.3 | 0.00 | 0.00 | 0.00 | 24 | 1013.1 |
| 20260504004828 | 19 | 358 | 4.8 | 22.5 | 0.00 | 0.00 | 0.00 | 24 | 1013.2 |
| 20260504004330 | 19 | 358 | 6.4 | 25.7 | 0.00 | 0.00 | 0.00 | 24 | 1013.3 |
| 20260504003829 | 19 | 358 | 8.0 | 25.7 | 0.00 | 0.00 | 0.00 | 24 | 1013.5 |
| 20260504003331 | 19 | 358 | 8.0 | 19.3 | 0.00 | 0.00 | 0.00 | 23 | 1013.5 |
| 20260504002832 | 20 | 358 | 4.8 | 20.9 | 0.00 | 0.00 | 0.00 | 22 | 1013.1 |
| 20260504002315 | 19 | 358 | 9.7 | 20.9 | 0.00 | 0.00 | 0.00 | 22 | 1013.1 |
| 20260504001817 | 20 | 358 | 4.8 | 17.7 | 0.00 | 0.00 | 0.00 | 22 | 1012.8 |
| 20260504001319 | 20 | 358 | 6.4 | 17.7 | 0.00 | 0.00 | 0.00 | 22 | 1012.6 |
| 20260504000820 | 20 | 358 | 8.0 | 16.1 | 0.00 | 0.00 | 0.00 | 22 | 1012.5 |
| 20260504000320 | 20 | 358 | 6.4 | 16.1 | 0.00 | 0.00 | 0.00 | 23 | 1012.6 |
| 20260503235821 | 20 | 358 | 4.8 | 16.1 | 0.00 | 0.00 | 0.00 | 22 | 1012.5 |
| 20260503235322 | 20 | 358 | 8.0 | 25.7 | 0.00 | 0.00 | 0.00 | 23 | 1012.5 |
| 20260503234823 | 20 | 358 | 6.4 | 25.7 | 0.00 | 0.00 | 0.00 | 22 | 1012.6 |
| 20260503234324 | 20 | 358 | 4.8 | 22.5 | 0.00 | 0.00 | 0.00 | 23 | 1012.8 |
| 20260503233823 | 21 | 358 | 11.3 | 19.3 | 0.00 | 0.00 | 0.00 | 22 | 1012.9 |
| 20260503233323 | 21 | 358 | 6.4 | 20.9 | 0.00 | 0.00 | 0.00 | 20 | 1012.9 |
| 20260503232823 | 20 | 358 | 6.4 | 20.9 | 0.00 | 0.00 | 0.00 | 20 | 1012.9 |
| 20260503232325 | 20 | 358 | 11.3 | 32.2 | 0.00 | 0.00 | 0.00 | 20 | 1012.8 |
| 20260503231828 | 21 | 358 | 12.9 | 32.2 | 0.00 | 0.00 | 0.00 | 19 | 1012.7 |
| 20260503231329 | 21 | 337 | 8.0 | 29.0 | 0.00 | 0.00 | 0.00 | 19 | 1012.6 |
| 20260503230830 | 21 | 14 | 8.0 | 16.1 | 0.00 | 0.00 | 0.00 | 18 | 1012.7 |
| 20260503230353 | 21 | 296 | 4.8 | 17.7 | 0.00 | 0.00 | 0.00 | 17 | 1012.6 |
| 20260503225829 | 21 | 241 | 11.3 | 17.7 | 0.00 | 0.00 | 0.00 | 17 | 1012.6 |
| 20260503225330 | 21 | 284 | 3.2 | 20.9 | 0.00 | 0.00 | 0.00 | 17 | 1012.7 |
| 20260503224831 | 21 | 326 | 8.0 | 20.9 | 0.00 | 0.00 | 0.00 | 17 | 1012.7 |
| 20260503224314 | 21 | 3 | 11.3 | 22.5 | 0.00 | 0.00 | 0.00 | 17 | 1012.7 |
| 20260503223816 | 21 | 11 | 11.3 | 22.5 | 0.00 | 0.00 | 0.00 | 17 | 1012.6 |
| 20260503223316 | 21 | 11 | 6.4 | 22.5 | 0.00 | 0.00 | 0.00 | 18 | 1012.6 |
| 20260503222837 | 21 | 15 | 11.3 | 25.7 | 0.00 | 0.00 | 0.00 | 17 | 1012.7 |
| 20260503222320 | 21 | 36 | 14.5 | 25.7 | 0.00 | 0.00 | 0.00 | 18 | 1012.9 |
| 20260503221818 | 22 | 353 | 11.3 | 20.9 | 0.00 | 0.00 | 0.00 | 18 | 1012.8 |
| 20260503221321 | 21 | 353 | 8.0 | 17.7 | 0.00 | 0.00 | 0.00 | 17 | 1012.9 |
| 20260503220821 | 21 | 353 | 9.7 | 19.3 | 0.00 | 0.00 | 0.00 | 17 | 1012.9 |
| 20260503220324 | 22 | 353 | 4.8 | 19.3 | 0.00 | 0.00 | 0.00 | 16 | 1012.9 |
| 20260503215826 | 22 | 335 | 8.0 | 19.3 | 0.00 | 0.00 | 0.00 | 17 | 1012.9 |
| 20260503215328 | 22 | 319 | 4.8 | 14.5 | 0.00 | 0.00 | 0.00 | 17 | 1013.1 |
| 20260503214831 | 22 | 317 | 6.4 | 16.1 | 0.00 | 0.00 | 0.00 | 15 | 1013.3 |
| 20260503214313 | 22 | 318 | 8.0 | 16.1 | 0.00 | 0.00 | 0.00 | 15 | 1013.3 |
| 20260503213814 | 22 | 311 | 6.4 | 16.1 | 0.00 | 0.00 | 0.00 | 15 | 1013.3 |
| 20260503213315 | 22 | 293 | 3.2 | 14.5 | 0.00 | 0.00 | 0.00 | 16 | 1013.3 |
| 20260503212817 | 22 | 290 | 6.4 | 16.1 | 0.00 | 0.00 | 0.00 | 15 | 1013.3 |
| 20260503212318 | 22 | 283 | 6.4 | 16.1 | 0.00 | 0.00 | 0.00 | 15 | 1013.5 |
| 20260503211820 | 23 | 279 | 6.4 | 14.5 | 0.00 | 0.00 | 0.00 | 15 | 1013.5 |
| 20260503211322 | 23 | 266 | 4.8 | 12.9 | 0.00 | 0.00 | 0.00 | 14 | 1013.5 |
| 20260503210823 | 23 | 265 | 4.8 | 19.3 | 0.00 | 0.00 | 0.00 | 14 | 1013.7 |
| 20260503210324 | 23 | 286 | 4.8 | 19.3 | 0.00 | 0.00 | 0.00 | 14 | 1013.7 |
| 20260503205826 | 23 | 302 | 3.2 | 20.9 | 0.00 | 0.00 | 0.00 | 14 | 1013.8 |
| 20260503205328 | 23 | 300 | 9.7 | 20.9 | 0.00 | 0.00 | 0.00 | 14 | 1013.9 |
| 20260503204827 | 23 | 19 | 6.4 | 14.5 | 0.00 | 0.00 | 0.00 | 15 | 1014.0 |
| 20260503204330 | 23 | 13 | 8.0 | 14.5 | 0.00 | 0.00 | 0.00 | 14 | 1014.1 |
| 20260503203829 | 23 | 8 | 3.2 | 17.7 | 0.00 | 0.00 | 0.00 | 13 | 1014.2 |
| 20260503203330 | 23 | 343 | 6.4 | 17.7 | 0.00 | 0.00 | 0.00 | 14 | 1014.2 |
| 20260503202813 | 22 | 168 | 3.2 | 12.9 | 0.00 | 0.00 | 0.00 | 15 | 1014.3 |
| 20260503202315 | 22 | 173 | 4.8 | 16.1 | 0.00 | 0.00 | 0.00 | 14 | 1014.4 |
| 20260503201817 | 22 | 170 | 8.0 | 14.5 | 0.00 | 0.00 | 0.00 | 15 | 1014.5 |
| 20260503201317 | 21 | 358 | 4.8 | 9.7 | 0.00 | 0.00 | 0.00 | 15 | 1014.6 |
| 20260503200818 | 21 | 353 | 3.2 | 9.7 | 0.00 | 0.00 | 0.00 | 16 | 1014.7 |
| 20260503200337 | 22 | 347 | 8.0 | 16.1 | 0.00 | 0.00 | 0.00 | 14 | 1014.8 |
| 20260503195817 | 22 | 341 | 6.4 | 14.5 | 0.00 | 0.00 | 0.00 | 15 | 1014.9 |
| 20260503195317 | 22 | 340 | 3.2 | 14.5 | 0.00 | 0.00 | 0.00 | 15 | 1014.9 |
| 20260503194818 | 22 | 348 | 4.8 | 12.9 | 0.00 | 0.00 | 0.00 | 15 | 1014.9 |
| 20260503194339 | 21 | 20 | 4.8 | 9.7 | 0.00 | 0.00 | 0.00 | 15 | 1015.0 |
| 20260503193818 | 21 | 19 | 1.6 | 16.1 | 0.00 | 0.00 | 0.00 | 15 | 1015.0 |
| 20260503193317 | 21 | 18 | 4.8 | 20.9 | 0.00 | 0.00 | 0.00 | 16 | 1015.1 |
| 20260503192820 | 21 | 26 | 12.9 | 20.9 | 0.00 | 0.00 | 0.00 | 15 | 1015.2 |
| 20260503192321 | 21 | 29 | 8.0 | 17.7 | 0.00 | 0.00 | 0.00 | 16 | 1015.2 |
| 20260503191837 | 21 | 74 | 6.4 | 16.1 | 0.00 | 0.00 | 0.00 | 15 | 1015.3 |
| 20260503191316 | 21 | 185 | 3.2 | 12.9 | 0.00 | 0.00 | 0.00 | 17 | 1015.3 |
| 20260503190819 | 21 | 184 | 4.8 | 14.5 | 0.00 | 0.00 | 0.00 | 17 | 1015.5 |
| 20260503190320 | 21 | 183 | 8.0 | 14.5 | 0.00 | 0.00 | 0.00 | 17 | 1015.6 |
| 20260503185822 | 21 | 240 | 3.2 | 12.9 | 0.00 | 0.00 | 0.00 | 17 | 1015.7 |
| 20260503185322 | 20 | 236 | 4.8 | 11.3 | 0.00 | 0.00 | 0.00 | 18 | 1015.8 |
| 20260503184843 | 20 | 235 | 4.8 | 12.9 | 0.00 | 0.00 | 0.00 | 17 | 1015.9 |
| 20260503184323 | 20 | 241 | 6.4 | 12.9 | 0.00 | 0.00 | 0.00 | 17 | 1016.0 |
| 20260503183824 | 20 | 255 | 1.6 | 12.9 | 0.00 | 0.00 | 0.00 | 18 | 1016.2 |
| 20260503183324 | 20 | 250 | 4.8 | 8.0 | 0.00 | 0.00 | 0.00 | 18 | 1016.3 |
| 20260503182845 | 20 | 358 | 4.8 | 14.5 | 0.00 | 0.00 | 0.00 | 19 | 1016.4 |
| 20260503182326 | 20 | 358 | 4.8 | 14.5 | 0.00 | 0.00 | 0.00 | 19 | 1016.5 |
| 20260503181825 | 20 | 358 | 6.4 | 14.5 | 0.00 | 0.00 | 0.00 | 20 | 1016.6 |
| 20260503181325 | 20 | 358 | 6.4 | 12.9 | 0.00 | 0.00 | 0.00 | 20 | 1016.6 |
| 20260503180827 | 19 | 358 | 4.8 | 19.3 | 0.00 | 0.00 | 0.00 | 19 | 1016.6 |
| 20260503180327 | 20 | 230 | 11.3 | 19.3 | 0.00 | 0.00 | 0.00 | 20 | 1016.7 |
| 20260503175829 | 20 | 224 | 12.9 | 16.1 | 0.00 | 0.00 | 0.00 | 20 | 1016.8 |
| 20260503175331 | 19 | 225 | 8.0 | 19.3 | 0.00 | 0.00 | 0.00 | 20 | 1016.9 |
| 20260503174812 | 20 | 227 | 6.4 | 20.9 | 0.00 | 0.00 | 0.00 | 20 | 1016.9 |
| 20260503174332 | 19 | 234 | 4.8 | 14.5 | 0.00 | 0.00 | 0.00 | 21 | 1017.0 |
| 20260503173831 | 19 | 233 | 4.8 | 16.1 | 0.00 | 0.00 | 0.00 | 21 | 1017.1 |
| 20260503173331 | 19 | 358 | 6.4 | 16.1 | 0.00 | 0.00 | 0.00 | 21 | 1017.3 |
| 20260503172853 | 18 | 237 | 9.7 | 17.7 | 0.00 | 0.00 | 0.00 | 21 | 1017.3 |
| 20260503172332 | 18 | 252 | 6.4 | 16.1 | 0.00 | 0.00 | 0.00 | 22 | 1017.4 |
| 20260503171813 | 18 | 265 | 8.0 | 19.3 | 0.00 | 0.00 | 0.00 | 22 | 1017.5 |
| 20260503171335 | 18 | 358 | 8.0 | 19.3 | 0.00 | 0.00 | 0.00 | 22 | 1017.6 |
| 20260503170832 | 18 | 233 | 4.8 | 16.1 | 0.00 | 0.00 | 0.00 | 22 | 1017.7 |
| 20260503170313 | 18 | 234 | 9.7 | 17.7 | 0.00 | 0.00 | 0.00 | 22 | 1017.7 |
| 20260503150813 | 17 | 211 | 9.7 | 19.3 | 0.00 | 0.00 | 0.00 | 26 | 1018.2 |
| 20260503150315 | 17 | 358 | 11.3 | 19.3 | 0.00 | 0.00 | 0.00 | 27 | 1018.2 |
| 20260503140314 | 12 | 358 | 6.4 | 16.1 | 0.00 | 0.00 | 0.00 | 36 | 1018.5 |
| 20260503131324 | 11 | 358 | 6.4 | 16.1 | 0.00 | 0.00 | 0.00 | 37 | 1018.4 |
| 20260503130847 | 11 | 358 | 8.0 | 12.9 | 0.00 | 0.00 | 0.00 | 38 | 1018.4 |
| 20260503130329 | 10 | 358 | 4.8 | 9.7 | 0.00 | 0.00 | 0.00 | 38 | 1018.4 |
| 20260503110827 | 10 | 196 | 8.0 | 12.9 | 0.00 | 0.00 | 0.00 | 38 | 1017.4 |
| 20260503110331 | 10 | 192 | 4.8 | 8.0 | 0.00 | 0.00 | 0.00 | 39 | 1017.4 |